Location: Unspecified
(51.0950°N, 12.9690°E)
Time: 15:52:24
(UTC+00:00)

BEESAT - Pass Details

Date: 02 May 2024
Orbit: 692 x 702 km, 98.5° (Epoch: 20 May)

Event Time Altitude Azimuth Distance (km) Brightness Sun altitude
Rises 22:00:03 0° 10° (N) 3,083 ? -21.7°
Reaches altitude 10° 22:02:21 10° 5° (N) 2,161 ? -21.8°
Maximum altitude 22:06:53 48° 292° (WNW) 907 ? -22.0°
Enters shadow 22:09:06 27° 233° (SW) 1,318 ? -22.1°
